SWA720 KBNA-KRDU

Flight info

Callsign SWA720
Flight time 1h 0m
Altitude 37000
Route TAZMO4 BURME VXV KPASS ALDAN4
Aircraft B737/M-SDE2E3FGHIRWXY/LB1

Departure

Time 2026-05-06 23:38
Airport Nashville International Airport (KBNA)

Arrival

Time 2026-05-07 00:39
Airport Raleigh-Durham International Airport (KRDU)
Time Latitude Longitude Altitude Speed Heading
2026-05-06 23:18 36.12829 -86.66888 568 ft 0 kts 255°
2026-05-06 23:28 36.12832 -86.66872 568 ft 4 kts 250°
2026-05-06 23:29 36.12844 -86.66844 569 ft 4 kts 221°
2026-05-06 23:29 36.12861 -86.66834 568 ft 4 kts 140°
2026-05-06 23:29 36.12867 -86.66841 568 ft 0 kts 131°
2026-05-06 23:32 36.12862 -86.66835 568 ft 4 kts 131°
2026-05-06 23:32 36.12823 -86.66788 568 ft 10 kts 149°
2026-05-06 23:32 36.12743 -86.66806 571 ft 13 kts 218°
2026-05-06 23:32 36.12676 -86.66878 569 ft 13 kts 221°
2026-05-06 23:33 36.12597 -86.66914 574 ft 12 kts 179°
2026-05-06 23:33 36.12516 -86.66934 571 ft 12 kts 208°
2026-05-06 23:33 36.12441 -86.66944 573 ft 12 kts 144°
2026-05-06 23:33 36.12382 -86.66869 570 ft 13 kts 131°
2026-05-06 23:34 36.12338 -86.66755 571 ft 16 kts 110°
2026-05-06 23:34 36.12300 -86.66617 573 ft 17 kts 107°
2026-05-06 23:34 36.12229 -86.66529 568 ft 16 kts 193°
2026-05-06 23:34 36.12122 -86.66571 573 ft 16 kts 198°
2026-05-06 23:35 36.12019 -86.66612 580 ft 15 kts 198°
2026-05-06 23:35 36.11920 -86.66651 580 ft 15 kts 198°
2026-05-06 23:35 36.11820 -86.66691 581 ft 15 kts 198°
2026-05-06 23:35 36.11725 -86.66729 585 ft 14 kts 198°
2026-05-06 23:36 36.11627 -86.66768 586 ft 15 kts 198°
2026-05-06 23:36 36.11522 -86.66809 589 ft 16 kts 198°
2026-05-06 23:36 36.11421 -86.66849 591 ft 15 kts 198°
2026-05-06 23:36 36.11324 -86.66877 590 ft 13 kts 157°
2026-05-06 23:37 36.11289 -86.66790 589 ft 11 kts 105°
2026-05-06 23:37 36.11311 -86.66753 590 ft 0 kts 17°
2026-05-06 23:37 36.11381 -86.66726 590 ft 43 kts 18°
2026-05-06 23:37 36.11955 -86.66497 580 ft 128 kts 17°
2026-05-06 23:38 36.12976 -86.66133 996 ft 160 kts 16°
2026-05-06 23:38 36.14038 -86.65737 2103 ft 156 kts 18°
2026-05-06 23:38 36.15018 -86.64982 2800 ft 186 kts 44°
2026-05-06 23:38 36.16017 -86.63706 3118 ft 226 kts 44°
2026-05-06 23:39 36.17201 -86.62200 3495 ft 259 kts 44°
2026-05-06 23:39 36.18500 -86.60550 4406 ft 273 kts 44°
2026-05-06 23:39 36.19837 -86.58843 5399 ft 286 kts 45°
2026-05-06 23:39 36.20911 -86.56698 6356 ft 305 kts 65°
2026-05-06 23:40 36.21528 -86.54155 6798 ft 309 kts 73°
2026-05-06 23:40 36.21928 -86.51539 6967 ft 315 kts 91°
2026-05-06 23:40 36.21434 -86.48913 7024 ft 314 kts 112°
2026-05-06 23:40 36.20668 -86.46371 7008 ft 314 kts 112°
2026-05-06 23:41 36.19952 -86.43813 7017 ft 314 kts 110°
2026-05-06 23:41 36.19189 -86.41293 7091 ft 313 kts 115°
2026-05-06 23:41 36.18308 -86.38814 7863 ft 315 kts 116°
2026-05-06 23:41 36.17414 -86.36363 9145 ft 311 kts 117°
2026-05-06 23:42 36.16522 -86.33912 10205 ft 316 kts 118°
2026-05-06 23:42 36.15594 -86.31352 10778 ft 337 kts 118°
2026-05-06 23:42 36.14616 -86.28633 11456 ft 352 kts 118°
2026-05-06 23:42 36.13614 -86.25822 12261 ft 361 kts 119°
2026-05-06 23:43 36.12593 -86.22945 13142 ft 368 kts 120°
2026-05-06 23:43 36.11553 -86.20012 13982 ft 376 kts 121°
2026-05-06 23:43 36.10501 -86.17044 14717 ft 385 kts 121°
2026-05-06 23:43 36.09412 -86.13974 15462 ft 394 kts 121°
2026-05-06 23:44 36.08297 -86.10843 16235 ft 402 kts 121°
2026-05-06 23:44 36.07206 -86.07602 16946 ft 417 kts 114°
2026-05-06 23:44 36.06709 -86.03992 17685 ft 433 kts 99°
2026-05-06 23:44 36.06479 -86.00233 18432 ft 442 kts 97°
2026-05-06 23:45 36.06279 -85.96416 19147 ft 447 kts 97°
2026-05-06 23:45 36.06064 -85.92584 19991 ft 447 kts 98°
2026-05-06 23:45 36.05820 -85.88751 20835 ft 448 kts 98°
2026-05-06 23:45 36.05553 -85.84895 21645 ft 451 kts 98°
2026-05-06 23:46 36.05275 -85.81015 22404 ft 455 kts 98°
2026-05-06 23:46 36.04998 -85.77154 23160 ft 459 kts 98°
2026-05-06 23:46 36.04716 -85.73159 23870 ft 463 kts 98°
2026-05-06 23:46 36.04442 -85.69226 24424 ft 468 kts 98°
2026-05-06 23:47 36.04160 -85.65174 24940 ft 475 kts 98°
2026-05-06 23:47 36.03873 -85.61077 25469 ft 481 kts 98°
2026-05-06 23:47 36.03583 -85.56942 26010 ft 486 kts 99°
2026-05-06 23:47 36.03286 -85.52748 26533 ft 492 kts 99°
2026-05-06 23:48 36.02986 -85.48523 27040 ft 497 kts 99°
2026-05-06 23:48 36.02680 -85.44239 27554 ft 502 kts 99°
2026-05-06 23:48 36.02370 -85.39926 28063 ft 507 kts 99°
2026-05-06 23:48 36.02056 -85.35569 28597 ft 511 kts 99°
2026-05-06 23:49 36.01841 -85.32611 28927 ft 514 kts 99°
2026-05-06 23:49 36.01523 -85.28242 29365 ft 520 kts 99°
2026-05-06 23:49 36.01083 -85.22246 29987 ft 527 kts 100°
2026-05-06 23:49 36.00752 -85.17723 30403 ft 532 kts 99°
2026-05-06 23:50 36.00651 -85.14678 30657 ft 538 kts 92°
2026-05-06 23:50 36.01772 -85.05456 31421 ft 549 kts 75°
2026-05-06 23:50 36.02760 -85.00887 31842 ft 550 kts 74°
2026-05-06 23:51 36.03745 -84.96324 32287 ft 552 kts 75°
2026-05-06 23:51 36.04713 -84.91724 32662 ft 554 kts 75°
2026-05-06 23:51 36.05673 -84.87103 33040 ft 555 kts 75°
2026-05-06 23:51 36.06629 -84.82476 33496 ft 556 kts 75°
2026-05-06 23:52 36.07585 -84.77850 33942 ft 556 kts 75°
2026-05-06 23:52 36.08544 -84.73217 34330 ft 556 kts 75°
2026-05-06 23:52 36.09503 -84.68588 34705 ft 556 kts 75°
2026-05-06 23:52 36.10462 -84.63955 35085 ft 555 kts 74°
2026-05-06 23:53 36.11417 -84.59342 35478 ft 554 kts 74°
2026-05-06 23:53 36.12371 -84.54721 35861 ft 554 kts 74°
2026-05-06 23:53 36.13327 -84.50088 36130 ft 556 kts 75°
2026-05-06 23:53 36.14282 -84.45450 36542 ft 554 kts 75°
2026-05-06 23:54 36.15220 -84.40890 36942 ft 553 kts 74°
2026-05-06 23:54 36.16170 -84.36252 36935 ft 557 kts 74°
2026-05-06 23:54 36.18057 -84.26970 36918 ft 553 kts 74°
2026-05-06 23:55 36.19942 -84.17814 36952 ft 546 kts 73°
2026-05-06 23:55 36.21791 -84.08698 36989 ft 546 kts 74°
2026-05-06 23:56 36.23617 -83.99528 36967 ft 549 kts 74°
2026-05-06 23:56 36.25444 -83.90377 36949 ft 552 kts 74°
2026-05-06 23:57 36.27291 -83.81133 36951 ft 553 kts 74°
2026-05-06 23:57 36.29136 -83.71867 36952 ft 554 kts 74°
2026-05-06 23:58 36.30987 -83.62527 36965 ft 562 kts 74°
2026-05-06 23:58 36.32871 -83.52980 36995 ft 577 kts 74°
2026-05-06 23:59 36.34782 -83.43238 36970 ft 584 kts 74°
2026-05-06 23:59 36.36693 -83.33442 36968 ft 585 kts 74°
2026-05-07 00:00 36.38589 -83.23679 36964 ft 585 kts 74°
2026-05-07 00:00 36.40491 -83.13847 36937 ft 585 kts 74°
2026-05-07 00:01 36.42383 -83.04027 36949 ft 584 kts 74°
2026-05-07 00:01 36.44263 -82.94218 36941 ft 584 kts 75°
2026-05-07 00:02 36.46129 -82.84436 36930 ft 583 kts 74°
2026-05-07 00:02 36.47988 -82.74639 36938 ft 581 kts 74°
2026-05-07 00:03 36.49838 -82.64869 36925 ft 580 kts 74°
2026-05-07 00:03 36.51672 -82.55116 36950 ft 576 kts 74°
2026-05-07 00:04 36.53484 -82.45411 36959 ft 576 kts 74°
2026-05-07 00:04 36.55274 -82.35796 36957 ft 574 kts 74°
2026-05-07 00:05 36.57069 -82.26113 36943 ft 573 kts 74°
2026-05-07 00:05 36.58856 -82.16428 36965 ft 573 kts 74°
2026-05-07 00:06 36.60630 -82.06765 36979 ft 572 kts 74°
2026-05-07 00:06 36.62392 -81.97116 36982 ft 572 kts 75°
2026-05-07 00:07 36.64147 -81.87462 36975 ft 572 kts 75°
2026-05-07 00:07 36.66023 -81.77842 36962 ft 571 kts 71°
2026-05-07 00:08 36.68271 -81.68367 36940 ft 571 kts 69°
2026-05-07 00:08 36.70579 -81.58889 36962 ft 572 kts 69°
2026-05-07 00:09 36.71712 -81.54130 36793 ft 576 kts 70°
2026-05-07 00:09 36.72833 -81.49338 36518 ft 574 kts 70°
2026-05-07 00:09 36.73942 -81.44571 36280 ft 571 kts 70°
2026-05-07 00:09 36.75034 -81.39811 36059 ft 571 kts 71°
2026-05-07 00:10 36.76109 -81.35105 35819 ft 572 kts 71°
2026-05-07 00:10 36.77196 -81.30337 35592 ft 572 kts 71°
2026-05-07 00:10 36.78285 -81.25569 35339 ft 568 kts 71°
2026-05-07 00:10 36.79360 -81.20853 34907 ft 562 kts 71°
2026-05-07 00:11 36.80426 -81.16177 34448 ft 557 kts 71°
2026-05-07 00:11 36.81482 -81.11547 33993 ft 553 kts 71°
2026-05-07 00:11 36.82530 -81.06944 33401 ft 550 kts 71°
2026-05-07 00:11 36.83572 -81.02360 32909 ft 545 kts 72°
2026-05-07 00:12 36.84602 -80.97819 32439 ft 540 kts 72°
2026-05-07 00:12 36.85619 -80.93320 31981 ft 535 kts 72°
2026-05-07 00:12 36.86621 -80.88878 31506 ft 525 kts 73°
2026-05-07 00:12 36.87587 -80.84588 31056 ft 515 kts 73°
2026-05-07 00:13 36.88557 -80.80275 30624 ft 506 kts 73°
2026-05-07 00:13 36.89488 -80.76128 30161 ft 498 kts 74°
2026-05-07 00:13 36.90416 -80.71988 29648 ft 491 kts 74°
2026-05-07 00:13 36.91326 -80.67919 29149 ft 482 kts 74°
2026-05-07 00:14 36.92222 -80.63902 28649 ft 478 kts 74°
2026-05-07 00:14 36.93110 -80.59917 28151 ft 474 kts 74°
2026-05-07 00:14 36.93993 -80.55950 27692 ft 471 kts 73°
2026-05-07 00:14 36.94866 -80.52019 27230 ft 468 kts 73°
2026-05-07 00:15 36.95729 -80.48120 26801 ft 464 kts 73°
2026-05-07 00:15 36.96566 -80.44247 26470 ft 458 kts 74°
2026-05-07 00:15 36.97379 -80.40412 26131 ft 455 kts 74°
2026-05-07 00:15 36.98184 -80.36596 25802 ft 453 kts 74°
2026-05-07 00:16 36.98753 -80.32772 25322 ft 456 kts 89°
2026-05-07 00:16 36.98467 -80.28776 24986 ft 463 kts 107°
2026-05-07 00:16 36.97435 -80.24925 24585 ft 484 kts 121°
2026-05-07 00:16 36.95849 -80.21114 24154 ft 505 kts 124°
2026-05-07 00:17 36.94152 -80.17263 23698 ft 504 kts 124°
2026-05-07 00:17 36.92451 -80.13438 23243 ft 504 kts 124°
2026-05-07 00:17 36.90759 -80.09617 22792 ft 501 kts 123°
2026-05-07 00:17 36.89094 -80.05820 22363 ft 497 kts 123°
2026-05-07 00:18 36.87449 -80.02038 21960 ft 494 kts 123°
2026-05-07 00:18 36.85813 -79.98260 21550 ft 491 kts 123°
2026-05-07 00:18 36.84193 -79.94511 21148 ft 488 kts 123°
2026-05-07 00:18 36.82585 -79.90791 20731 ft 485 kts 123°
2026-05-07 00:19 36.80988 -79.87099 20354 ft 482 kts 123°
2026-05-07 00:19 36.79395 -79.83423 19937 ft 479 kts 122°
2026-05-07 00:19 36.77811 -79.79772 19552 ft 476 kts 123°
2026-05-07 00:19 36.76240 -79.76156 19158 ft 472 kts 122°
2026-05-07 00:20 36.74678 -79.72567 18777 ft 468 kts 122°
2026-05-07 00:20 36.73146 -79.69051 18397 ft 465 kts 122°
2026-05-07 00:20 36.71602 -79.65513 17951 ft 463 kts 122°
2026-05-07 00:20 36.70067 -79.61998 17546 ft 459 kts 122°
2026-05-07 00:21 36.68548 -79.58520 17165 ft 455 kts 122°
2026-05-07 00:21 36.67043 -79.55081 16804 ft 450 kts 122°
2026-05-07 00:21 36.65548 -79.51667 16441 ft 446 kts 122°
2026-05-07 00:21 36.64067 -79.48291 16076 ft 442 kts 122°
2026-05-07 00:22 36.62599 -79.44946 15715 ft 438 kts 122°
2026-05-07 00:22 36.61139 -79.41622 15347 ft 435 kts 122°
2026-05-07 00:22 36.59695 -79.38340 14998 ft 431 kts 122°
2026-05-07 00:22 36.58259 -79.35079 14648 ft 428 kts 122°
2026-05-07 00:23 36.56832 -79.31841 14295 ft 425 kts 122°
2026-05-07 00:23 36.55418 -79.28635 13940 ft 421 kts 122°
2026-05-07 00:23 36.54014 -79.25455 13577 ft 418 kts 122°
2026-05-07 00:23 36.52621 -79.22304 13204 ft 415 kts 122°
2026-05-07 00:24 36.51241 -79.19188 12916 ft 408 kts 122°
2026-05-07 00:24 36.49883 -79.16123 12588 ft 403 kts 122°
2026-05-07 00:24 36.48535 -79.13082 12255 ft 400 kts 122°
2026-05-07 00:24 36.47188 -79.10046 11936 ft 401 kts 122°
2026-05-07 00:25 36.45844 -79.07019 11608 ft 400 kts 122°
2026-05-07 00:25 36.44501 -79.03994 11271 ft 398 kts 122°
2026-05-07 00:25 36.43171 -79.00999 10944 ft 396 kts 122°
2026-05-07 00:25 36.41843 -78.98014 10618 ft 394 kts 122°
2026-05-07 00:26 36.40531 -78.95066 10280 ft 383 kts 122°
2026-05-07 00:26 36.39139 -78.92397 9949 ft 353 kts 136°
2026-05-07 00:26 36.37510 -78.90324 9955 ft 320 kts 141°
2026-05-07 00:26 36.35983 -78.88456 9858 ft 298 kts 141°
2026-05-07 00:27 36.34501 -78.86628 9248 ft 297 kts 141°
2026-05-07 00:27 36.33086 -78.84850 8898 ft 290 kts 140°
2026-05-07 00:27 36.31683 -78.83074 8647 ft 286 kts 140°
2026-05-07 00:27 36.30303 -78.81322 8387 ft 281 kts 140°
2026-05-07 00:28 36.28943 -78.79611 8141 ft 276 kts 140°
2026-05-07 00:28 36.27609 -78.77939 7878 ft 269 kts 140°
2026-05-07 00:28 36.26316 -78.76302 7590 ft 262 kts 140°
2026-05-07 00:28 36.25061 -78.74708 7303 ft 255 kts 140°
2026-05-07 00:29 36.23828 -78.73145 7041 ft 252 kts 140°
2026-05-07 00:29 36.22607 -78.71596 6792 ft 251 kts 140°
2026-05-07 00:30 36.18948 -78.66969 5968 ft 250 kts 141°
2026-05-07 00:30 36.17683 -78.65517 5723 ft 247 kts 145°
2026-05-07 00:30 36.16392 -78.64129 5492 ft 246 kts 146°
2026-05-07 00:30 36.15082 -78.62751 5274 ft 247 kts 147°
2026-05-07 00:31 36.13616 -78.61789 5035 ft 231 kts 175°
2026-05-07 00:31 36.12072 -78.61632 4855 ft 221 kts 178°
2026-05-07 00:31 36.10580 -78.61120 4674 ft 221 kts 170°
2026-05-07 00:31 36.09143 -78.60698 4484 ft 202 kts 187°
2026-05-07 00:32 36.07814 -78.60804 4349 ft 184 kts 192°
2026-05-07 00:32 36.06685 -78.61057 4356 ft 152 kts 210°
2026-05-07 00:32 36.05755 -78.61562 4116 ft 144 kts 210°
2026-05-07 00:32 36.04819 -78.62051 3994 ft 149 kts 209°
2026-05-07 00:33 36.03843 -78.62549 3853 ft 156 kts 208°
2026-05-07 00:33 36.02831 -78.63053 3679 ft 156 kts 208°
2026-05-07 00:33 36.01827 -78.63544 3524 ft 154 kts 208°
2026-05-07 00:33 36.00828 -78.64030 3399 ft 155 kts 207°
2026-05-07 00:34 36.00158 -78.64356 3301 ft 156 kts 207°
2026-05-07 00:34 35.99155 -78.64840 3153 ft 155 kts 207°
2026-05-07 00:34 35.97861 -78.65636 2959 ft 155 kts 226°
2026-05-07 00:34 35.97126 -78.66545 2781 ft 144 kts 227°
2026-05-07 00:35 35.96427 -78.67409 2629 ft 141 kts 227°
2026-05-07 00:35 35.95962 -78.67984 2548 ft 138 kts 227°
2026-05-07 00:35 35.95302 -78.68801 2400 ft 133 kts 227°
2026-05-07 00:35 35.94642 -78.69620 2277 ft 133 kts 227°
2026-05-07 00:36 35.94015 -78.70394 2257 ft 123 kts 227°
2026-05-07 00:36 35.93416 -78.71135 2204 ft 122 kts 227°
2026-05-07 00:36 35.92818 -78.71876 2192 ft 122 kts 226°
2026-05-07 00:36 35.92210 -78.72628 1978 ft 131 kts 226°
2026-05-07 00:37 35.91570 -78.73420 1646 ft 130 kts 227°
2026-05-07 00:37 35.90954 -78.74181 1434 ft 121 kts 226°
2026-05-07 00:37 35.90337 -78.74946 1100 ft 129 kts 225°
2026-05-07 00:37 35.89723 -78.75706 993 ft 127 kts 226°
2026-05-07 00:38 35.89088 -78.76488 827 ft 130 kts 224°
2026-05-07 00:38 35.88437 -78.77296 653 ft 134 kts 225°
2026-05-07 00:38 35.87779 -78.78113 465 ft 131 kts 225°
2026-05-07 00:38 35.87204 -78.78815 429 ft 93 kts 225°
2026-05-07 00:39 35.86856 -78.79248 424 ft 27 kts 225°
2026-05-07 00:39 35.86784 -78.79440 433 ft 22 kts 265°
2026-05-07 00:39 35.86786 -78.79479 437 ft 0 kts 285°
2026-05-07 00:39 35.86799 -78.79502 428 ft 5 kts 329°
2026-05-07 00:40 35.86838 -78.79473 427 ft 11 kts 47°
2026-05-07 00:40 35.86919 -78.79364 430 ft 23 kts 47°
2026-05-07 00:40 35.87045 -78.79209 427 ft 27 kts 45°
2026-05-07 00:40 35.87165 -78.79063 424 ft 20 kts 44°
2026-05-07 00:41 35.87253 -78.78954 425 ft 17 kts 46°
2026-05-07 00:41 35.87351 -78.78915 421 ft 17 kts 336°
2026-05-07 00:41 35.87397 -78.78956 431 ft 0 kts 308°